TimeGMT,TemperatureF,Dew PointF,Humidity,Sea Level PressureIn,VisibilityMPH,Wind Direction,Wind SpeedMPH,Gust SpeedMPH,PrecipitationIn,Events,Conditions,WindDirDegrees,DateUTC
12:00 AM,45,44,96,29.33,,SE,26.8,,,,,130,2013-01-18 00:00:00
6:00 AM,36,36,99,29.31,7,ESE,15.7,,,Rain,Light Rain,120,2013-01-18 06:00:00
8:00 AM,35.6,33.8,93,29.24,4.3,SE,17.3,-,N/A,Rain,Light Rain,130,2013-01-18 08:00:00
8:30 AM,33.8,33.8,100,29.24,1.6,ESE,13.8,-,N/A,Rain,Light Rain,120,2013-01-18 08:30:00
9:00 AM,33.8,33.8,100,29.24,0.2,SE,11.5,-,N/A,Fog-Rain,Light Rain,130,2013-01-18 09:00:00
9:30 AM,33.8,33.8,100,29.24,0.4,ESE,10.4,-,N/A,Fog-Rain,Light Rain,120,2013-01-18 09:30:00
10:00 AM,33.8,33.8,100,29.24,0.4,ESE,10.4,-,N/A,Fog-Rain,Light Rain,110,2013-01-18 10:00:00
10:30 AM,32.0,32.0,100,29.24,0.7,ESE,9.2,-,N/A,Rain-Snow,Light Rain,110,2013-01-18 10:30:00
11:00 AM,32.0,32.0,100,29.24,0.4,ESE,10.4,-,N/A,Fog-Rain-Snow,Light Rain,110,2013-01-18 11:00:00
11:30 AM,32.0,32.0,100,29.24,0.7,ESE,6.9,-,N/A,Rain-Snow,Light Rain,110,2013-01-18 11:30:00
12:00 PM,33,33,99,29.28,1,ESE,8.9,,,Rain,Light Drizzle,110,2013-01-18 12:00:00
12:00 PM,33.8,33.8,100,29.24,0.7,ESE,9.2,-,N/A,,Light Drizzle,110,2013-01-18 12:00:00
12:30 PM,33.8,32.0,93,29.21,0.5,ESE,6.9,-,N/A,Fog-Rain,Light Rain,110,2013-01-18 12:30:00
1:00 PM,33.8,33.8,100,29.21,0.5,ESE,8.1,-,N/A,Fog-Rain,Light Rain,110,2013-01-18 13:00:00
1:30 PM,33.8,33.8,100,29.21,0.4,ESE,8.1,-,N/A,Fog-Rain,Light Rain,110,2013-01-18 13:30:00
2:00 PM,33.8,33.8,100,29.18,0.1,ESE,8.1,-,N/A,Fog,Fog,110,2013-01-18 14:00:00
2:30 PM,33.8,33.8,100,29.18,0.1,ESE,5.8,-,N/A,Fog,Fog,110,2013-01-18 14:30:00
3:00 PM,32.0,32.0,100,29.18,0.2,East,4.6,-,N/A,Fog-Snow,Light Snow,100,2013-01-18 15:00:00
3:30 PM,32.0,32.0,100,29.18,0.1,ESE,2.3,-,N/A,Fog,Fog,110,2013-01-18 15:30:00
4:00 PM,33.8,33.8,100,29.18,0.2,ESE,3.5,-,N/A,Fog-Rain-Snow,Light Rain,110,2013-01-18 16:00:00
4:30 PM,33.8,33.8,100,29.18,0.1,SE,4.6,-,N/A,Fog-Rain-Snow,Light Rain,130,2013-01-18 16:30:00
5:00 PM,33.8,33.8,100,29.18,0.1,ESE,2.3,-,N/A,Fog-Rain,Light Rain,120,2013-01-18 17:00:00
5:30 PM,33.8,33.8,100,29.18,0.2,SSE,2.3,-,N/A,Fog-Rain,Light Rain,150,2013-01-18 17:30:00
6:00 PM,33,33,100,29.21,0,SE,4.5,,,Fog,Heavy Fog,130,2013-01-18 18:00:00
6:00 PM,33.8,33.8,100,29.18,0.2,SE,3.5,-,N/A,Fog,Fog,130,2013-01-18 18:00:00
6:30 PM,33.8,33.8,100,29.18,0.2,SE,3.5,-,N/A,Fog,Fog,130,2013-01-18 18:30:00